EW3232 Weather Reports


Display with metric or nautical units.
time (UTC)temp
F
wind
direction
speed
MPH
gust
MPH
rain 1hr
in
rain 24hr
in
rain mn
in
humidity
%
barometer
mb
20260502170150 58 77 4.0 9.0 0.00 0.52 0.37 96 1018.5
20260502163029 58 11 4.0 10.0 0.00 0.52 0.37 96 1018.3
20260502161528 58 71 5.0 12.0 0.00 0.52 0.37 96 1018.5
20260502160112 58 85 6.0 12.0 0.01 0.52 0.37 96 1018.4
20260502151505 58 67 7.0 11.0 0.02 0.52 0.37 96 1018.6
20260502150139 58 85 8.0 11.0 0.02 0.51 0.36 96 1018.9
20260502130148 58 68 6.0 11.0 0.00 0.48 0.33 94 1020.6
20260502123107 58 92 5.0 10.0 0.00 0.48 0.33 94 1020.8
20260502121558 58 83 5.0 10.0 0.00 0.48 0.33 93 1020.9
20260502113136 59 85 4.0 9.0 0.00 0.48 0.33 93 1021.0
20260502111607 59 58 8.0 12.0 0.00 0.48 0.33 93 1021.1
20260502104633 58 79 7.0 11.0 0.00 0.48 0.33 94 1021.5
20260502103056 58 51 9.0 13.0 0.00 0.48 0.33 94 1021.7
20260502101539 58 101 5.0 12.0 0.00 0.48 0.33 95 1021.8
20260502090123 58 91 7.0 11.0 0.13 0.44 0.28 95 1021.5
20260502070117 58 359 0.0 2.0 0.06 0.33 0.16 95 1021.5
20260502064632 58 72 0.0 2.0 0.02 0.28 0.12 95 1021.5
20260502061615 58 90 0.0 2.0 0.02 0.28 0.12 95 1021.5
20260502060035 58 245 0.0 2.0 0.00 0.28 0.10 95 1021.4
20260502054524 58 245 0.0 2.0 0.00 0.28 0.10 95 1021.2
20260502051527 57 245 0.0 2.0 0.00 0.28 0.10 95 1021.1
20260502050138 57 245 0.0 2.0 0.00 0.28 0.10 95 1021.2
20260502044637 57 245 1.0 1.0 0.00 0.28 0.10 95 1021.1
20260502043108 57 245 1.0 2.0 0.00 0.28 0.10 94 1020.9
20260502041637 57 137 0.0 2.0 0.00 0.28 0.10 94 1021.1
20260502040017 57 19 0.0 2.0 0.00 0.28 0.10 94 1021.2
20260502034555 58 19 0.0 2.0 0.00 0.28 0.10 94 1021.2
20260502033057 58 19 0.0 2.0 0.00 0.28 0.10 94 1021.3
20260502031549 58 19 0.0 2.0 0.00 0.28 0.10 94 1021.4
20260502030006 58 19 0.0 0.0 0.00 0.28 0.10 94 1021.3
20260502024514 58 19 0.0 4.0 0.00 0.28 0.10 94 1021.4
20260502023135 58 25 3.0 4.0 0.00 0.28 0.10 94 1021.3
20260502021633 57 43 2.0 4.0 0.00 0.28 0.10 94 1021.5
20260502020111 57 4 2.0 6.0 0.00 0.28 0.10 94 1021.6
20260502014612 57 360 2.0 5.0 0.00 0.28 0.10 94 1021.7
20260502013119 57 52 1.0 6.0 0.00 0.28 0.10 94 1021.9
20260502011512 57 52 2.0 5.0 0.01 0.28 0.10 94 1022.0
20260502010139 58 81 2.0 10.0 0.01 0.28 0.10 95 1022.0
20260502004604 58 59 4.0 7.0 0.01 0.30 0.10 95 1022.2
20260502003034 58 33 5.0 11.0 0.01 0.30 0.10 95 1022.3
20260502001610 58 64 2.0 6.0 0.09 0.28 0.09 95 1022.4
20260502000122 58 26 5.0 8.0 0.09 0.28 0.09 95 1022.6
20260501234509 58 49 3.0 7.0 0.09 0.28 0.09 95 1022.9
20260501233019 58 71 2.0 6.0 0.09 0.28 0.09 94 1022.8
20260501231606 58 63 0.0 2.0 0.01 0.20 0.01 94 1022.8
20260501230101 58 63 0.0 2.0 0.00 0.20 0.00 94 1022.9
20260501224510 58 9 1.0 4.0 0.00 0.20 0.00 94 1023.0
20260501223115 58 38 1.0 5.0 0.00 0.20 0.00 94 1023.0
20260501221600 58 342 1.0 4.0 0.01 0.20 0.00 95 1023.1
20260501220006 58 16 2.0 5.0 0.01 0.20 0.20 95 1023.2
20260501214608 58 58 4.0 9.0 0.01 0.20 0.20 95 1023.3
20260501213058 58 30 4.0 9.0 0.02 0.20 0.20 95 1023.3
20260501211539 58 31 2.0 4.0 0.01 0.19 0.19 95 1023.3
20260501204558 58 85 1.0 2.0 0.01 0.19 0.19 95 1023.4
20260501203005 58 109 1.0 2.0 0.01 0.18 0.18 94 1023.3
20260501201505 58 82 0.0 3.0 0.03 0.18 0.18 94 1023.1
20260501200043 58 42 1.0 3.0 0.06 0.18 0.18 94 1023.0
20260501194532 58 41 3.0 4.0 0.09 0.18 0.18 94 1022.9
20260501193119 58 22 3.0 9.0 0.10 0.17 0.17 93 1022.8
20260501191627 58 36 1.0 6.0 0.09 0.15 0.15 93 1022.6
20260501190057 58 31 2.0 8.0 0.06 0.12 0.12 93 1022.5
20260501184541 58 35 3.0 7.0 0.05 0.09 0.09 92 1022.3
20260501181655 58 15 6.0 10.0 0.02 0.06 0.06 89 1022.1
20260501180125 59 329 2.0 6.0 0.01 0.06 0.06 89 1022.1
20260501174644 59 43 1.0 3.0 0.00 0.05 0.05 88 1021.8
20260501173124 59 9 3.0 8.0 0.00 0.05 0.05 87 1021.9